{"data":{"norad_id":68475,"epoch":"2026-09-20T02:48:51.936192Z","epoch_age_seconds":102189,"freshness":"FRESH","line1":"1 68475U 26067BM  26263.11726778  .00005594  00000+0  53756-3 0  9990","line2":"2 68475  97.7594 219.8602 0005918  91.6576 268.5321 14.93422439 25362","mean_motion":14.93422439,"eccentricity":0.0005918,"inclination_deg":97.7594,"raan_deg":219.8602,"arg_perigee_deg":91.6576,"mean_anomaly_deg":268.5321,"bstar":0.00053756,"rev_number":2536,"period_min":96.422817978028,"perigee_km":583.15153237371,"apogee_km":591.39579243374,"semimajor_km":6965.4106624037,"source":"CELESTRAK","updated_at":"2026-09-20T09:00:24.242737Z"}}